2616300151,2005,10,01,00,0.005
2616300151,2005,10,01,01,0.007
2616300151,2005,10,01,02,0.002
2616300151,2005,10,01,03,0.001
2616300151,2005,10,01,04,0
2616300151,2005,10,01,05,99
2616300151,2005,10,01,06,99
2616300151,2005,10,01,07,99
2616300151,2005,10,01,08,99
2616300151,2005,10,01,09,99
2616300151,2005,10,01,10,99
2616300151,2005,10,01,11,99
2616300151,2005,10,01,12,99
2616300151,2005,10,01,13,99
2616300151,2005,10,01,14,99
2616300151,2005,10,01,15,99
2616300151,2005,10,01,16,99
2616300151,2005,10,01,17,99
2616300151,2005,10,01,18,99
2616300151,2005,10,01,19,99
2616300151,2005,10,01,20,99
2616300151,2005,10,01,21,99
2616300151,2005,10,01,22,99
2616300151,2005,10,01,23,99
2616300151,2005,10,02,00,99
2616300151,2005,10,02,01,99
2616300151,2005,10,02,02,99
2616300151,2005,10,02,03,99
2616300151,2005,10,02,04,99
2616300151,2005,10,02,05,99
2616300151,2005,10,02,06,99
2616300151,2005,10,02,07,99
2616300151,2005,10,02,08,99
2616300151,2005,10,02,09,99
2616300151,2005,10,02,10,99
2616300151,2005,10,02,11,99
2616300151,2005,10,02,12,99
2616300151,2005,10,02,13,99
2616300151,2005,10,02,14,99
2616300151,2005,10,02,15,99
2616300151,2005,10,02,16,99
2616300151,2005,10,02,17,99
2616300151,2005,10,02,18,99
2616300151,2005,10,02,19,99
2616300151,2005,10,02,20,99
2616300151,2005,10,02,21,99
2616300151,2005,10,02,22,99
2616300151,2005,10,02,23,99
2616300151,2005,10,03,00,99
2616300151,2005,10,03,01,99
2616300151,2005,10,03,02,99
2616300151,2005,10,03,03,99
2616300151,2005,10,03,04,99
2616300151,2005,10,03,05,99
2616300151,2005,10,03,06,99
2616300151,2005,10,03,07,99
2616300151,2005,10,03,08,0.005
2616300151,2005,10,03,09,0.014
2616300151,2005,10,03,10,0.019
2616300151,2005,10,03,11,0.029
2616300151,2005,10,03,12,0.033
2616300151,2005,10,03,13,0.044
2616300151,2005,10,03,14,0.06
2616300151,2005,10,03,15,0.064
2616300151,2005,10,03,16,0.065
2616300151,2005,10,03,17,0.063
2616300151,2005,10,03,18,0.052
2616300151,2005,10,03,19,0.056
2616300151,2005,10,03,20,0.049
2616300151,2005,10,03,21,0.05
2616300151,2005,10,03,22,0.045
2616300151,2005,10,03,23,0.032
2616300151,2005,10,04,00,0.025
2616300151,2005,10,04,01,0.024
2616300151,2005,10,04,02,0.019
2616300151,2005,10,04,03,0.02
2616300151,2005,10,04,04,0.014
2616300151,2005,10,04,05,0.006
2616300151,2005,10,04,06,0.001
2616300151,2005,10,04,07,0.008
2616300151,2005,10,04,08,0.011
2616300151,2005,10,04,09,0.013
2616300151,2005,10,04,10,0.022
2616300151,2005,10,04,11,0.027
2616300151,2005,10,04,12,0.049
2616300151,2005,10,04,13,0.062
2616300151,2005,10,04,14,0.067
2616300151,2005,10,04,15,0.08
2616300151,2005,10,04,16,0.073
2616300151,2005,10,04,17,0.065
2616300151,2005,10,04,18,0.055
2616300151,2005,10,04,19,0.057
2616300151,2005,10,04,20,0.058
2616300151,2005,10,04,21,0.057
2616300151,2005,10,04,22,0.059
2616300151,2005,10,04,23,0.06
2616300151,2005,10,05,00,0.051
2616300151,2005,10,05,01,0.04
2616300151,2005,10,05,02,0.032
2616300151,2005,10,05,03,0.029
2616300151,2005,10,05,04,0.023
2616300151,2005,10,05,05,0.005
2616300151,2005,10,05,06,0.003
2616300151,2005,10,05,07,0.007
2616300151,2005,10,05,08,0.013
2616300151,2005,10,05,09,0.027
2616300151,2005,10,05,10,0.033
2616300151,2005,10,05,11,0.037
2616300151,2005,10,05,12,0.048
2616300151,2005,10,05,13,0.055
2616300151,2005,10,05,14,0.079
2616300151,2005,10,05,15,0.083
2616300151,2005,10,05,16,0.08
2616300151,2005,10,05,17,0.073
2616300151,2005,10,05,18,0.066
2616300151,2005,10,05,19,0.061
2616300151,2005,10,05,20,0.06
2616300151,2005,10,05,21,0.051
2616300151,2005,10,05,22,0.045
2616300151,2005,10,05,23,0.031
2616300151,2005,10,06,00,0.023
2616300151,2005,10,06,01,0.026
2616300151,2005,10,06,02,99
2616300151,2005,10,06,03,99
2616300151,2005,10,06,04,99
2616300151,2005,10,06,05,99
2616300151,2005,10,06,06,99
2616300151,2005,10,06,07,99
2616300151,2005,10,06,08,99
2616300151,2005,10,06,09,99
2616300151,2005,10,06,10,99
2616300151,2005,10,06,11,99
2616300151,2005,10,06,12,99
2616300151,2005,10,06,13,99
2616300151,2005,10,06,14,99
2616300151,2005,10,06,15,99
2616300151,2005,10,06,16,99
2616300151,2005,10,06,17,99
2616300151,2005,10,06,18,99
2616300151,2005,10,06,19,99
2616300151,2005,10,06,20,99
2616300151,2005,10,06,21,99
2616300151,2005,10,06,22,99
2616300151,2005,10,06,23,99
2616300151,2005,10,07,00,99
2616300151,2005,10,07,01,99
2616300151,2005,10,07,02,99
2616300151,2005,10,07,03,99
2616300151,2005,10,07,04,99
2616300151,2005,10,07,05,99
2616300151,2005,10,07,06,99
2616300151,2005,10,07,07,99
2616300151,2005,10,07,08,99
2616300151,2005,10,07,09,99
2616300151,2005,10,07,10,99
2616300151,2005,10,07,11,0.01
2616300151,2005,10,07,12,0.013
2616300151,2005,10,07,13,0.014
2616300151,2005,10,07,14,0.015
2616300151,2005,10,07,15,0.014
2616300151,2005,10,07,16,0.013
2616300151,2005,10,07,17,0.013
2616300151,2005,10,07,18,0.011
2616300151,2005,10,07,19,0.014
2616300151,2005,10,07,20,0.016
2616300151,2005,10,07,21,0.017
2616300151,2005,10,07,22,99
2616300151,2005,10,07,23,99
2616300151,2005,10,08,00,99
2616300151,2005,10,08,01,99
2616300151,2005,10,08,02,99
2616300151,2005,10,08,03,99
2616300151,2005,10,08,04,99
2616300151,2005,10,08,05,99
2616300151,2005,10,08,06,99
2616300151,2005,10,08,07,99
2616300151,2005,10,08,08,99
2616300151,2005,10,08,09,99
2616300151,2005,10,08,10,99
2616300151,2005,10,08,11,99
2616300151,2005,10,08,12,99
2616300151,2005,10,08,13,0.027
2616300151,2005,10,08,14,0.028
2616300151,2005,10,08,15,0.029
2616300151,2005,10,08,16,0.027
2616300151,2005,10,08,17,0.027
2616300151,2005,10,08,18,0.025
2616300151,2005,10,08,19,0.023
2616300151,2005,10,08,20,0.02
2616300151,2005,10,08,21,99
2616300151,2005,10,08,22,99
2616300151,2005,10,08,23,99
2616300151,2005,10,09,00,99
2616300151,2005,10,09,01,99
2616300151,2005,10,09,02,99
2616300151,2005,10,09,03,99
2616300151,2005,10,09,04,99
2616300151,2005,10,09,05,99
2616300151,2005,10,09,06,99
2616300151,2005,10,09,07,99
2616300151,2005,10,09,08,99
2616300151,2005,10,09,09,99
2616300151,2005,10,09,10,99
2616300151,2005,10,09,11,0.024
2616300151,2005,10,09,12,0.028
2616300151,2005,10,09,13,0.028
2616300151,2005,10,09,14,0.03
2616300151,2005,10,09,15,0.031
2616300151,2005,10,09,16,0.028
2616300151,2005,10,09,17,0.018
2616300151,2005,10,09,18,0.01
2616300151,2005,10,09,19,0.009
2616300151,2005,10,09,20,0.01
2616300151,2005,10,09,21,0.005
2616300151,2005,10,09,22,0.007
2616300151,2005,10,09,23,0.005
2616300151,2005,10,10,00,0.001
2616300151,2005,10,10,01,0.001
2616300151,2005,10,10,02,0.004
2616300151,2005,10,10,03,99
2616300151,2005,10,10,04,99
2616300151,2005,10,10,05,99
2616300151,2005,10,10,06,99
2616300151,2005,10,10,07,99
2616300151,2005,10,10,08,99
2616300151,2005,10,10,09,99
2616300151,2005,10,10,10,0.002
2616300151,2005,10,10,11,0.002
2616300151,2005,10,10,12,0.002
2616300151,2005,10,10,13,0.003
2616300151,2005,10,10,14,0.003
2616300151,2005,10,10,15,0.002
2616300151,2005,10,10,16,0.002
2616300151,2005,10,10,17,0.001
2616300151,2005,10,10,18,0.001
2616300151,2005,10,10,19,0.005
2616300151,2005,10,10,20,0.002
2616300151,2005,10,10,21,0
2616300151,2005,10,10,22,0
2616300151,2005,10,10,23,0
2616300151,2005,10,11,00,0
2616300151,2005,10,11,01,0
2616300151,2005,10,11,02,0
2616300151,2005,10,11,03,0.007
2616300151,2005,10,11,04,0.003
2616300151,2005,10,11,05,0.002
2616300151,2005,10,11,06,0.003
2616300151,2005,10,11,07,0.002
2616300151,2005,10,11,08,0.003
2616300151,2005,10,11,09,0.005
2616300151,2005,10,11,10,0.004
2616300151,2005,10,11,11,0.004
2616300151,2005,10,11,12,0.005
2616300151,2005,10,11,13,0.005
2616300151,2005,10,11,14,0.006
2616300151,2005,10,11,15,0.008
2616300151,2005,10,11,16,0.003
2616300151,2005,10,11,17,0
2616300151,2005,10,11,18,0
2616300151,2005,10,11,19,0
2616300151,2005,10,11,20,0.001
2616300151,2005,10,11,21,0.002
2616300151,2005,10,11,22,0.003
2616300151,2005,10,11,23,0.007
2616300151,2005,10,12,00,0.008
2616300151,2005,10,12,01,0.009
2616300151,2005,10,12,02,0.007
2616300151,2005,10,12,03,0.003
2616300151,2005,10,12,04,0.003
2616300151,2005,10,12,05,0
2616300151,2005,10,12,06,0
2616300151,2005,10,12,07,0
2616300151,2005,10,12,08,0
2616300151,2005,10,12,09,0.003
2616300151,2005,10,12,10,0.005
2616300151,2005,10,12,11,0.006
2616300151,2005,10,12,12,0.004
2616300151,2005,10,12,13,0.007
2616300151,2005,10,12,14,0.008
2616300151,2005,10,12,15,0.005
2616300151,2005,10,12,16,0.004
2616300151,2005,10,12,17,0.002
2616300151,2005,10,12,18,0
2616300151,2005,10,12,19,0.002
2616300151,2005,10,12,20,0.001
2616300151,2005,10,12,21,0.002
2616300151,2005,10,12,22,0.002
2616300151,2005,10,12,23,0
2616300151,2005,10,13,00,0
2616300151,2005,10,13,01,0
2616300151,2005,10,13,02,0
2616300151,2005,10,13,03,0
2616300151,2005,10,13,04,0
2616300151,2005,10,13,05,0
2616300151,2005,10,13,06,0
2616300151,2005,10,13,07,0
2616300151,2005,10,13,08,0
2616300151,2005,10,13,09,0
2616300151,2005,10,13,10,0.001
2616300151,2005,10,13,11,0.003
2616300151,2005,10,13,12,0.005
2616300151,2005,10,13,13,0.009
2616300151,2005,10,13,14,0.014
2616300151,2005,10,13,15,0.007
2616300151,2005,10,13,16,0.014
2616300151,2005,10,13,17,0.013
2616300151,2005,10,13,18,0.008
2616300151,2005,10,13,19,0.008
2616300151,2005,10,13,20,0.008
2616300151,2005,10,13,21,0.004
2616300151,2005,10,13,22,0.006
2616300151,2005,10,13,23,0.003
2616300151,2005,10,14,00,0.009
2616300151,2005,10,14,01,0.006
2616300151,2005,10,14,02,0.001
2616300151,2005,10,14,03,0.003
2616300151,2005,10,14,04,99
2616300151,2005,10,14,05,99
2616300151,2005,10,14,06,99
2616300151,2005,10,14,07,99
2616300151,2005,10,14,08,99
2616300151,2005,10,14,09,99
2616300151,2005,10,14,10,99
2616300151,2005,10,14,11,99
2616300151,2005,10,14,12,99
2616300151,2005,10,14,13,0.023
2616300151,2005,10,14,14,0.021
2616300151,2005,10,14,15,0.021
2616300151,2005,10,14,16,0.02
2616300151,2005,10,14,17,0.022
2616300151,2005,10,14,18,0.01
2616300151,2005,10,14,19,0
2616300151,2005,10,14,20,0
2616300151,2005,10,14,21,0
2616300151,2005,10,14,22,0
2616300151,2005,10,14,23,0.005
2616300151,2005,10,15,00,0.014
2616300151,2005,10,15,01,0.011
2616300151,2005,10,15,02,0.011
2616300151,2005,10,15,03,0.014
2616300151,2005,10,15,04,0.008
2616300151,2005,10,15,05,0.002
2616300151,2005,10,15,06,0
2616300151,2005,10,15,07,0.002
2616300151,2005,10,15,08,0.01
2616300151,2005,10,15,09,0.017
2616300151,2005,10,15,10,0.024
2616300151,2005,10,15,11,0.027
2616300151,2005,10,15,12,0.031
2616300151,2005,10,15,13,0.032
2616300151,2005,10,15,14,0.033
2616300151,2005,10,15,15,0.031
2616300151,2005,10,15,16,0.027
2616300151,2005,10,15,17,0.025
2616300151,2005,10,15,18,0.021
2616300151,2005,10,15,19,0.018
2616300151,2005,10,15,20,0.015
2616300151,2005,10,15,21,0.013
2616300151,2005,10,15,22,0.008
2616300151,2005,10,15,23,0.011
2616300151,2005,10,16,00,0.011
2616300151,2005,10,16,01,0.011
2616300151,2005,10,16,02,99
2616300151,2005,10,16,03,99
2616300151,2005,10,16,04,99
2616300151,2005,10,16,05,99
2616300151,2005,10,16,06,99
2616300151,2005,10,16,07,99
2616300151,2005,10,16,08,99
2616300151,2005,10,16,09,99
2616300151,2005,10,16,10,99
2616300151,2005,10,16,11,0.021
2616300151,2005,10,16,12,0.021
2616300151,2005,10,16,13,0.021
2616300151,2005,10,16,14,0.023
2616300151,2005,10,16,15,0.024
2616300151,2005,10,16,16,0.024
2616300151,2005,10,16,17,0.013
2616300151,2005,10,16,18,0
2616300151,2005,10,16,19,0
2616300151,2005,10,16,20,0
2616300151,2005,10,16,21,0
2616300151,2005,10,16,22,0
2616300151,2005,10,16,23,99
2616300151,2005,10,17,00,99
2616300151,2005,10,17,01,99
2616300151,2005,10,17,02,99
2616300151,2005,10,17,03,99
2616300151,2005,10,17,04,99
2616300151,2005,10,17,05,99
2616300151,2005,10,17,06,99
2616300151,2005,10,17,07,99
2616300151,2005,10,17,08,99
2616300151,2005,10,17,09,99
2616300151,2005,10,17,10,99
2616300151,2005,10,17,11,0.019
2616300151,2005,10,17,12,0.019
2616300151,2005,10,17,13,0.014
2616300151,2005,10,17,14,0.008
2616300151,2005,10,17,15,0.008
2616300151,2005,10,17,16,0.012
2616300151,2005,10,17,17,0.01
2616300151,2005,10,17,18,0.011
2616300151,2005,10,17,19,0.013
2616300151,2005,10,17,20,0.003
2616300151,2005,10,17,21,0.002
2616300151,2005,10,17,22,0.002
2616300151,2005,10,17,23,0
2616300151,2005,10,18,00,0
2616300151,2005,10,18,01,0.001
2616300151,2005,10,18,02,0.007
2616300151,2005,10,18,03,0.001
2616300151,2005,10,18,04,0
2616300151,2005,10,18,05,0.001
2616300151,2005,10,18,06,0.001
2616300151,2005,10,18,07,0.002
2616300151,2005,10,18,08,0.007
2616300151,2005,10,18,09,0.015
2616300151,2005,10,18,10,0.019
2616300151,2005,10,18,11,0.023
2616300151,2005,10,18,12,0.026
2616300151,2005,10,18,13,0.03
2616300151,2005,10,18,14,0.031
2616300151,2005,10,18,15,0.031
2616300151,2005,10,18,16,0.027
2616300151,2005,10,18,17,0.014
2616300151,2005,10,18,18,0.001
2616300151,2005,10,18,19,0.002
2616300151,2005,10,18,20,0.001
2616300151,2005,10,18,21,0.001
2616300151,2005,10,18,22,0.001
2616300151,2005,10,18,23,0.001
2616300151,2005,10,19,00,0
2616300151,2005,10,19,01,0
2616300151,2005,10,19,02,0.001
2616300151,2005,10,19,03,0
2616300151,2005,10,19,04,0
2616300151,2005,10,19,05,0.001
2616300151,2005,10,19,06,0.002
2616300151,2005,10,19,07,0.002
2616300151,2005,10,19,08,0.006
2616300151,2005,10,19,09,0.013
2616300151,2005,10,19,10,0.02
2616300151,2005,10,19,11,0.021
2616300151,2005,10,19,12,0.021
2616300151,2005,10,19,13,0.02
2616300151,2005,10,19,14,0.022
2616300151,2005,10,19,15,0.023
2616300151,2005,10,19,16,0.022
2616300151,2005,10,19,17,0.014
2616300151,2005,10,19,18,0.009
2616300151,2005,10,19,19,0.002
2616300151,2005,10,19,20,0.001
2616300151,2005,10,19,21,0.001
2616300151,2005,10,19,22,0
2616300151,2005,10,19,23,0.001
2616300151,2005,10,20,00,0.001
2616300151,2005,10,20,01,0.001
2616300151,2005,10,20,02,0.001
2616300151,2005,10,20,03,0.001
2616300151,2005,10,20,04,0.001
2616300151,2005,10,20,05,0.001
2616300151,2005,10,20,06,0.001
2616300151,2005,10,20,07,0.001
2616300151,2005,10,20,08,0.004
2616300151,2005,10,20,09,0.019
2616300151,2005,10,20,10,0.026
2616300151,2005,10,20,11,0.029
2616300151,2005,10,20,12,0.028
2616300151,2005,10,20,13,0.027
2616300151,2005,10,20,14,0.024
2616300151,2005,10,20,15,0.023
2616300151,2005,10,20,16,0.014
2616300151,2005,10,20,17,0.004
2616300151,2005,10,20,18,0.001
2616300151,2005,10,20,19,0.002
2616300151,2005,10,20,20,0.001
2616300151,2005,10,20,21,0.001
2616300151,2005,10,20,22,0.001
2616300151,2005,10,20,23,0.001
2616300151,2005,10,21,00,0.001
2616300151,2005,10,21,01,0.001
2616300151,2005,10,21,02,0
2616300151,2005,10,21,03,0
2616300151,2005,10,21,04,0.001
2616300151,2005,10,21,05,0
2616300151,2005,10,21,06,0.001
2616300151,2005,10,21,07,0.013
2616300151,2005,10,21,08,0.02
2616300151,2005,10,21,09,0.024
2616300151,2005,10,21,10,0.025
2616300151,2005,10,21,11,0.022
2616300151,2005,10,21,12,0.022
2616300151,2005,10,21,13,0.021
2616300151,2005,10,21,14,0.026
2616300151,2005,10,21,15,0.022
2616300151,2005,10,21,16,0.017
2616300151,2005,10,21,17,0.007
2616300151,2005,10,21,18,0.005
2616300151,2005,10,21,19,0.008
2616300151,2005,10,21,20,0.011
2616300151,2005,10,21,21,0.009
2616300151,2005,10,21,22,0.006
2616300151,2005,10,21,23,0.002
2616300151,2005,10,22,00,0.001
2616300151,2005,10,22,01,0.001
2616300151,2005,10,22,02,0.002
2616300151,2005,10,22,03,0.003
2616300151,2005,10,22,04,0.002
2616300151,2005,10,22,05,0.002
2616300151,2005,10,22,06,0.002
2616300151,2005,10,22,07,0.003
2616300151,2005,10,22,08,0.007
2616300151,2005,10,22,09,0.009
2616300151,2005,10,22,10,0.013
2616300151,2005,10,22,11,0.018
2616300151,2005,10,22,12,0.021
2616300151,2005,10,22,13,0.022
2616300151,2005,10,22,14,0.02
2616300151,2005,10,22,15,0.019
2616300151,2005,10,22,16,0.02
2616300151,2005,10,22,17,0.013
2616300151,2005,10,22,18,0.006
2616300151,2005,10,22,19,0.002
2616300151,2005,10,22,20,0.008
2616300151,2005,10,22,21,0.001
2616300151,2005,10,22,22,0.001
2616300151,2005,10,22,23,0.001
2616300151,2005,10,23,00,0.001
2616300151,2005,10,23,01,0.001
2616300151,2005,10,23,02,0.001
2616300151,2005,10,23,03,0.001
2616300151,2005,10,23,04,0.002
2616300151,2005,10,23,05,0.001
2616300151,2005,10,23,06,0.001
2616300151,2005,10,23,07,0.001
2616300151,2005,10,23,08,0.003
2616300151,2005,10,23,09,0.008
2616300151,2005,10,23,10,0.018
2616300151,2005,10,23,11,0.02
2616300151,2005,10,23,12,0.023
2616300151,2005,10,23,13,0.024
2616300151,2005,10,23,14,0.027
2616300151,2005,10,23,15,0.027
2616300151,2005,10,23,16,0.023
2616300151,2005,10,23,17,0.019
2616300151,2005,10,23,18,0.004
2616300151,2005,10,23,19,0.002
2616300151,2005,10,23,20,0.001
2616300151,2005,10,23,21,0.002
2616300151,2005,10,23,22,0.005
2616300151,2005,10,23,23,0.006
2616300151,2005,10,24,00,0.006
2616300151,2005,10,24,01,0.005
2616300151,2005,10,24,02,0.003
2616300151,2005,10,24,03,0.001
2616300151,2005,10,24,04,0.001
2616300151,2005,10,24,05,0.001
2616300151,2005,10,24,06,0.001
2616300151,2005,10,24,07,0.001
2616300151,2005,10,24,08,0.002
2616300151,2005,10,24,09,0.005
2616300151,2005,10,24,10,0.008
2616300151,2005,10,24,11,0.01
2616300151,2005,10,24,12,0.009
2616300151,2005,10,24,13,0.01
2616300151,2005,10,24,14,0.006
2616300151,2005,10,24,15,0.005
2616300151,2005,10,24,16,0.006
2616300151,2005,10,24,17,0.004
2616300151,2005,10,24,18,0.007
2616300151,2005,10,24,19,0.004
2616300151,2005,10,24,20,0.006
2616300151,2005,10,24,21,0.008
2616300151,2005,10,24,22,0.004
2616300151,2005,10,24,23,0.008
2616300151,2005,10,25,00,0.009
2616300151,2005,10,25,01,0.008
2616300151,2005,10,25,02,0.01
2616300151,2005,10,25,03,0.007
2616300151,2005,10,25,04,0.008
2616300151,2005,10,25,05,0.006
2616300151,2005,10,25,06,0.004
2616300151,2005,10,25,07,0.004
2616300151,2005,10,25,08,0.006
2616300151,2005,10,25,09,0.012
2616300151,2005,10,25,10,0.017
2616300151,2005,10,25,11,0.019
2616300151,2005,10,25,12,0.022
2616300151,2005,10,25,13,0.023
2616300151,2005,10,25,14,0.022
2616300151,2005,10,25,15,0.021
2616300151,2005,10,25,16,0.018
2616300151,2005,10,25,17,0.019
2616300151,2005,10,25,18,0.013
2616300151,2005,10,25,19,0.014
2616300151,2005,10,25,20,0.016
2616300151,2005,10,25,21,0.019
2616300151,2005,10,25,22,0.018
2616300151,2005,10,25,23,0.018
2616300151,2005,10,26,00,0.018
2616300151,2005,10,26,01,0.016
2616300151,2005,10,26,02,0.01
2616300151,2005,10,26,03,0.007
2616300151,2005,10,26,04,0.002
2616300151,2005,10,26,05,0.002
2616300151,2005,10,26,06,0.002
2616300151,2005,10,26,07,0.003
2616300151,2005,10,26,08,99
2616300151,2005,10,26,09,99
2616300151,2005,10,26,10,0.016
2616300151,2005,10,26,11,0.02
2616300151,2005,10,26,12,0.02
2616300151,2005,10,26,13,0.021
2616300151,2005,10,26,14,0.021
2616300151,2005,10,26,15,0.02
2616300151,2005,10,26,16,0.017
2616300151,2005,10,26,17,0.009
2616300151,2005,10,26,18,0.01
2616300151,2005,10,26,19,0.009
2616300151,2005,10,26,20,0.011
2616300151,2005,10,26,21,0.009
2616300151,2005,10,26,22,0.002
2616300151,2005,10,26,23,0
2616300151,2005,10,27,00,0
2616300151,2005,10,27,01,0
2616300151,2005,10,27,02,0
2616300151,2005,10,27,03,0
2616300151,2005,10,27,04,0
2616300151,2005,10,27,05,0
2616300151,2005,10,27,06,0
2616300151,2005,10,27,07,0
2616300151,2005,10,27,08,0
2616300151,2005,10,27,09,0.005
2616300151,2005,10,27,10,0.012
2616300151,2005,10,27,11,0.018
2616300151,2005,10,27,12,0.015
2616300151,2005,10,27,13,0.014
2616300151,2005,10,27,14,0.018
2616300151,2005,10,27,15,0.017
2616300151,2005,10,27,16,0.01
2616300151,2005,10,27,17,0.005
2616300151,2005,10,27,18,0.007
2616300151,2005,10,27,19,0
2616300151,2005,10,27,20,0
2616300151,2005,10,27,21,0
2616300151,2005,10,27,22,0
2616300151,2005,10,27,23,0.003
2616300151,2005,10,28,00,0
2616300151,2005,10,28,01,0
2616300151,2005,10,28,02,0.002
2616300151,2005,10,28,03,0.003
2616300151,2005,10,28,04,0
2616300151,2005,10,28,05,0
2616300151,2005,10,28,06,0
2616300151,2005,10,28,07,0
2616300151,2005,10,28,08,0
2616300151,2005,10,28,09,0.001
2616300151,2005,10,28,10,0.008
2616300151,2005,10,28,11,0.014
2616300151,2005,10,28,12,0.011
2616300151,2005,10,28,13,0.015
2616300151,2005,10,28,14,0.019
2616300151,2005,10,28,15,0.021
2616300151,2005,10,28,16,0.021
2616300151,2005,10,28,17,0.005
2616300151,2005,10,28,18,0
2616300151,2005,10,28,19,0
2616300151,2005,10,28,20,0
2616300151,2005,10,28,21,0
2616300151,2005,10,28,22,0
2616300151,2005,10,28,23,0
2616300151,2005,10,29,00,0
2616300151,2005,10,29,01,0
2616300151,2005,10,29,02,0
2616300151,2005,10,29,03,0
2616300151,2005,10,29,04,0
2616300151,2005,10,29,05,0
2616300151,2005,10,29,06,0
2616300151,2005,10,29,07,0
2616300151,2005,10,29,08,0.002
2616300151,2005,10,29,09,0.008
2616300151,2005,10,29,10,0.017
2616300151,2005,10,29,11,0.026
2616300151,2005,10,29,12,0.033
2616300151,2005,10,29,13,0.035
2616300151,2005,10,29,14,0.033
2616300151,2005,10,29,15,0.031
2616300151,2005,10,29,16,0.032
2616300151,2005,10,29,17,0.016
2616300151,2005,10,29,18,0
2616300151,2005,10,29,19,0.001
2616300151,2005,10,29,20,0.001
2616300151,2005,10,29,21,0
2616300151,2005,10,29,22,0
2616300151,2005,10,29,23,0.001
2616300151,2005,10,30,00,0.001
2616300151,2005,10,30,01,0.002
2616300151,2005,10,30,02,0.003
2616300151,2005,10,30,03,0.002
2616300151,2005,10,30,04,0.004
2616300151,2005,10,30,05,0.004
2616300151,2005,10,30,06,0
2616300151,2005,10,30,07,0.001
2616300151,2005,10,30,08,0.003
2616300151,2005,10,30,09,0.015
2616300151,2005,10,30,10,0.021
2616300151,2005,10,30,11,0.026
2616300151,2005,10,30,12,0.032
2616300151,2005,10,30,13,0.025
2616300151,2005,10,30,14,0.025
2616300151,2005,10,30,15,0.027
2616300151,2005,10,30,16,0.016
2616300151,2005,10,30,17,0.012
2616300151,2005,10,30,18,0.023
2616300151,2005,10,30,19,0.019
2616300151,2005,10,30,20,0.023
2616300151,2005,10,30,21,0.016
2616300151,2005,10,30,22,0.005
2616300151,2005,10,30,23,0.016
2616300151,2005,10,31,00,0.007
2616300151,2005,10,31,01,0.006
2616300151,2005,10,31,02,0.006
2616300151,2005,10,31,03,0.006
2616300151,2005,10,31,04,0.01
2616300151,2005,10,31,05,0.013
2616300151,2005,10,31,06,0.008
2616300151,2005,10,31,07,0.007
2616300151,2005,10,31,08,0.014
2616300151,2005,10,31,09,0.018
2616300151,2005,10,31,10,0.021
2616300151,2005,10,31,11,0.027
2616300151,2005,10,31,12,0.026
2616300151,2005,10,31,13,0.037
2616300151,2005,10,31,14,0.041
2616300151,2005,10,31,15,0.029
2616300151,2005,10,31,16,0.02
2616300151,2005,10,31,17,0.019
2616300151,2005,10,31,18,0.011
2616300151,2005,10,31,19,0.021
2616300151,2005,10,31,20,0.02
2616300151,2005,10,31,21,0.022
2616300151,2005,10,31,22,0.01
2616300151,2005,10,31,23,0.006
2616300151,2005,11,01,00,0.005
2616300151,2005,11,01,01,0.006
2616300151,2005,11,01,02,0.004
2616300151,2005,11,01,03,0.011
2616300151,2005,11,01,04,0.019
2616300151,2005,11,01,05,0.011
2616300151,2005,11,01,06,0.003
2616300151,2005,11,01,07,0
2616300151,2005,11,01,08,0
2616300151,2005,11,01,09,0.005
2616300151,2005,11,01,10,0.012
2616300151,2005,11,01,11,0.018
2616300151,2005,11,01,12,0.021
2616300151,2005,11,01,13,0.018
2616300151,2005,11,01,14,0.017
2616300151,2005,11,01,15,0.017
2616300151,2005,11,01,16,0.015
2616300151,2005,11,01,17,0.009
2616300151,2005,11,01,18,0.001
2616300151,2005,11,01,19,0
2616300151,2005,11,01,20,0
2616300151,2005,11,01,21,0
2616300151,2005,11,01,22,0.001
2616300151,2005,11,01,23,0.003
2616300151,2005,11,02,00,0.001
2616300151,2005,11,02,01,0
2616300151,2005,11,02,02,0
2616300151,2005,11,02,03,0
2616300151,2005,11,02,04,0
2616300151,2005,11,02,05,0
2616300151,2005,11,02,06,0
2616300151,2005,11,02,07,0
2616300151,2005,11,02,08,0.001